Location: Noordwijk
(52.2400°N, 4.4500°E)
Time: 02:47:23
(UTC+00:00)

PCSat - Pass Details

Date: 12 December 2022
Orbit: 785 x 793 km, 67.0° (Epoch: 28 January)

Event Time Altitude Azimuth Distance (km) Brightness Sun altitude
Rises 17:09:48 0° 206° (SSW) 3,270 13.5 -14.2°
Reaches altitude 10° 17:12:13 10° 203° (SSW) 2,346 12.6 -14.6°
Maximum altitude 17:17:32 65° 123° (ESE) 867 9.6 -15.4°
Enters shadow 17:21:03 22° 47° (NE) 1,685 10.7 -15.9°
